"Period start","avg(HW err(1)/warn(2) (#))","avg(Visibility (m))","avg(Weather code (#))","avg(Precip intensity (mm/h))","min(HW err(1)/warn(2) (#))","max(HW err(1)/warn(2) (#))","std(HW err(1)/warn(2) (#))","med(HW err(1)/warn(2) (#))","min(Visibility (m))","max(Visibility (m))","std(Visibility (m))","med(Visibility (m))","min(Weather code (#))","max(Weather code (#))","std(Weather code (#))","med(Weather code (#))","min(Precip intensity (mm/h))","max(Precip intensity (mm/h))","std(Precip intensity (mm/h))","med(Precip intensity (mm/h))"
2017-11-04 00:00:00,2,49646,0,0.00,2,2,0,2,48488,50000,570,50000,0,0,0,0,0.00,0.00,0.00,0.00
2017-11-04 00:10:00,2,50000,0,0.00,2,2,0,2,50000,50000,0,50000,0,0,0,0,0.00,0.00,0.00,0.00
2017-11-04 00:20:00,2,50000,0,0.00,2,2,0,2,50000,50000,0,50000,0,0,0,0,0.00,0.00,0.00,0.00
2017-11-04 00:30:00,2,49879,0,0.00,2,2,0,2,48787,50000,364,50000,0,0,0,0,0.00,0.00,0.00,0.00
2017-11-04 00:40:00,2,47197,0,0.00,2,2,0,2,38668,50000,3558,48739,0,0,0,0,0.00,0.00,0.00,0.00
2017-11-04 00:50:00,2,50000,0,0.00,2,2,0,2,50000,50000,0,50000,0,0,0,0,0.00,0.00,0.00,0.00
2017-11-04 01:00:00,2,49976,0,0.00,2,2,0,2,49803,50000,59,50000,0,0,0,0,0.00,0.00,0.00,0.00
2017-11-04 01:10:00,2,50000,0,0.00,2,2,0,2,50000,50000,0,50000,0,0,0,0,0.00,0.00,0.00,0.00
2017-11-04 01:20:00,2,46560,0,0.00,2,2,0,2,38726,50000,3791,47294,0,0,0,0,0.00,0.00,0.00,0.00
2017-11-04 01:30:00,2,42794,0,0.00,2,2,0,2,36967,47980,3430,41950,0,0,0,0,0.00,0.00,0.00,0.00
2017-11-04 01:40:00,2,46131,0,0.00,2,2,0,2,25410,50000,7749,50000,0,0,0,0,0.00,0.00,0.00,0.00
2017-11-04 01:50:00,2,40399,0,0.00,2,2,0,2,32689,49973,5842,39888,0,0,0,0,0.00,0.00,0.00,0.00
2017-11-04 02:00:00,2,42706,0,0.00,2,2,0,2,34253,50000,5680,42646,0,0,0,0,0.00,0.00,0.00,0.00
2017-11-04 02:10:00,2,46952,0,0.00,2,2,0,2,40996,50000,3458,48928,0,0,0,0,0.00,0.00,0.00,0.00
2017-11-04 02:20:00,2,46501,0,0.00,2,2,0,2,35617,50000,4397,48001,0,0,0,0,0.00,0.00,0.00,0.00
2017-11-04 02:30:00,2,47756,0,0.00,2,2,0,2,40565,50000,2983,49180,0,0,0,0,0.00,0.00,0.00,0.00
2017-11-04 02:40:00,2,45600,0,0.00,2,2,0,2,35799,50000,4986,48139,0,0,0,0,0.00,0.00,0.00,0.00
2017-11-04 02:50:00,2,46467,0,0.00,2,2,0,2,37637,50000,4249,48717,0,0,0,0,0.00,0.00,0.00,0.00
2017-11-04 03:00:00,2,42430,0,0.00,2,2,0,2,37503,47682,3399,41740,0,0,0,0,0.00,0.00,0.00,0.00
2017-11-04 03:10:00,2,48729,0,0.00,2,2,0,2,40930,50000,2722,50000,0,0,0,0,0.00,0.00,0.00,0.00
2017-11-04 03:20:00,2,48135,0,0.00,2,2,0,2,42172,50000,2450,49496,0,0,0,0,0.00,0.00,0.00,0.00
2017-11-04 03:30:00,2,47124,0,0.00,2,2,0,2,34550,50000,5769,50000,0,0,0,0,0.00,0.00,0.00,0.00
2017-11-04 03:40:00,2,47496,0,0.00,2,2,0,2,43065,50000,2502,48643,0,0,0,0,0.00,0.00,0.00,0.00
2017-11-04 03:50:00,2,46986,0,0.00,2,2,0,2,41747,50000,2849,47962,0,0,0,0,0.00,0.00,0.00,0.00
2017-11-04 04:00:00,2,46405,0,0.00,2,2,0,2,39544,50000,4030,48676,0,0,0,0,0.00,0.00,0.00,0.00
2017-11-04 04:10:00,2,49934,0,0.00,2,2,0,2,49338,50000,199,50000,0,0,0,0,0.00,0.00,0.00,0.00
2017-11-04 04:20:00,2,50000,0,0.00,2,2,0,2,50000,50000,0,50000,0,0,0,0,0.00,0.00,0.00,0.00
2017-11-04 04:30:00,2,49960,0,0.00,2,2,0,2,49601,50000,120,50000,0,0,0,0,0.00,0.00,0.00,0.00
2017-11-04 04:40:00,2,50000,0,0.00,2,2,0,2,50000,50000,0,50000,0,0,0,0,0.00,0.00,0.00,0.00
2017-11-04 04:50:00,2,50000,0,0.00,2,2,0,2,50000,50000,0,50000,0,0,0,0,0.00,0.00,0.00,0.00
2017-11-04 05:00:00,2,50000,0,0.00,2,2,0,2,50000,50000,0,50000,0,0,0,0,0.00,0.00,0.00,0.00
2017-11-04 05:10:00,2,50000,0,0.00,2,2,0,2,50000,50000,0,50000,0,0,0,0,0.00,0.00,0.00,0.00
2017-11-04 05:20:00,2,50000,0,0.00,2,2,0,2,50000,50000,0,50000,0,0,0,0,0.00,0.00,0.00,0.00
2017-11-04 05:30:00,2,50000,0,0.00,2,2,0,2,50000,50000,0,50000,0,0,0,0,0.00,0.00,0.00,0.00
2017-11-04 05:40:00,2,50000,0,0.00,1,2,0,2,50000,50000,0,50000,0,0,0,0,0.00,0.00,0.00,0.00
2017-11-04 05:50:00,1,,,,1,1,0,1,,,,,,,,,,,,
2017-11-04 06:00:00,1,,,,1,1,0,1,,,,,,,,,,,,
2017-11-04 06:10:00,2,22664,55,0.00,2,2,0,2,13134,29407,5622,24860,0,78,32,71,0.00,0.00,0.00,0.00
2017-11-04 06:20:00,2,17221,77,0.01,2,2,0,2,11916,22309,3213,17022,77,78,0,77,0.00,0.05,0.02,0.00
2017-11-04 06:30:00,2,23114,77,0.00,2,2,0,2,17828,29514,4034,22414,77,77,0,77,0.00,0.00,0.00,0.00
2017-11-04 06:40:00,2,17045,77,0.00,2,2,0,2,13638,23240,2836,15830,77,77,0,77,0.00,0.00,0.00,0.00
2017-11-04 06:50:00,2,15582,77,0.00,2,2,0,2,13539,18743,1972,14535,77,78,0,77,0.00,0.00,0.00,0.00
2017-11-04 07:00:00,2,16514,54,0.00,2,2,0,2,13332,20947,2266,16120,0,78,35,77,0.00,0.00,0.00,0.00
2017-11-04 07:10:00,2,23034,0,0.00,2,2,0,2,18641,33398,4517,21202,0,0,0,0,0.00,0.00,0.00,0.00
2017-11-04 07:20:00,2,31498,0,0.00,2,2,0,2,24561,50000,7938,28534,0,0,0,0,0.00,0.00,0.00,0.00
2017-11-04 07:30:00,2,47171,0,0.00,2,2,0,2,36463,50000,4714,50000,0,0,0,0,0.00,0.00,0.00,0.00
2017-11-04 07:40:00,2,50000,0,0.00,2,2,0,2,50000,50000,0,50000,0,0,0,0,0.00,0.00,0.00,0.00
2017-11-04 07:50:00,2,25770,38,0.01,2,2,0,2,9738,50000,15623,16008,0,78,38,36,0.00,0.05,0.02,0.00
2017-11-04 08:00:00,2,9597,78,0.04,2,2,0,2,6733,12131,1560,9572,77,78,0,78,0.00,0.05,0.02,0.05
2017-11-04 08:10:00,2,15830,77,0.00,2,2,0,2,10240,20207,2864,16013,77,77,0,77,0.00,0.00,0.00,0.00
2017-11-04 08:20:00,2,13293,77,0.02,2,2,0,2,8004,18405,3077,12702,77,77,0,77,0.00,0.10,0.03,0.00
2017-11-04 08:30:00,2,10282,78,0.03,2,2,0,2,8880,11857,953,10483,77,78,0,78,0.00,0.05,0.03,0.03
2017-11-04 08:40:00,2,14537,77,0.00,2,2,0,2,10924,20633,3131,14220,77,77,0,77,0.00,0.00,0.00,0.00
2017-11-04 08:50:00,2,11166,77,0.02,2,2,0,2,8229,17065,2466,10945,77,77,0,77,0.00,0.05,0.02,0.00
2017-11-04 09:00:00,2,7676,77,0.04,2,2,0,2,6591,8877,721,7482,77,77,0,77,0.00,0.05,0.02,0.05
2017-11-04 09:10:00,2,8824,77,0.03,2,2,0,2,6372,10420,1120,8961,77,77,0,77,0.00,0.10,0.03,0.00
2017-11-04 09:20:00,2,11996,77,0.02,2,2,0,2,8307,16094,2139,12410,77,78,0,77,0.00,0.05,0.02,0.00
2017-11-04 09:30:00,2,22304,61,0.01,2,2,0,2,10261,29592,6327,23784,0,78,30,77,0.00,0.05,0.02,0.00
2017-11-04 09:40:00,2,28692,0,0.00,2,2,0,2,13508,43577,8219,30074,0,0,0,0,0.00,0.00,0.00,0.00
2017-11-04 09:50:00,2,49899,0,0.00,2,2,0,2,49016,50000,294,50000,0,0,0,0,0.00,0.00,0.00,0.00
2017-11-04 10:00:00,2,50000,0,0.00,2,2,0,2,50000,50000,0,50000,0,0,0,0,0.00,0.00,0.00,0.00
2017-11-04 10:10:00,2,50000,0,0.00,2,2,0,2,50000,50000,0,50000,0,0,0,0,0.00,0.00,0.00,0.00
2017-11-04 10:20:00,2,50000,0,0.00,2,2,0,2,50000,50000,0,50000,0,0,0,0,0.00,0.00,0.00,0.00
2017-11-04 10:30:00,2,50000,0,0.00,2,2,0,2,50000,50000,0,50000,0,0,0,0,0.00,0.00,0.00,0.00
2017-11-04 10:40:00,2,50000,0,0.00,2,2,0,2,50000,50000,0,50000,0,0,0,0,0.00,0.00,0.00,0.00
2017-11-04 10:50:00,2,49910,0,0.00,2,2,0,2,49104,50000,269,50000,0,0,0,0,0.00,0.00,0.00,0.00
2017-11-04 11:00:00,2,48876,0,0.00,2,2,0,2,43419,50000,2289,50000,0,0,0,0,0.00,0.00,0.00,0.00
2017-11-04 11:10:00,2,48429,0,0.00,2,2,0,2,36894,50000,3923,50000,0,0,0,0,0.00,0.00,0.00,0.00
2017-11-04 11:20:00,2,48938,0,0.00,2,2,0,2,45102,50000,1902,50000,0,0,0,0,0.00,0.00,0.00,0.00
2017-11-04 11:30:00,2,48728,0,0.00,2,2,0,2,44147,50000,1834,49630,0,0,0,0,0.00,0.00,0.00,0.00
2017-11-04 11:40:00,2,46846,0,0.00,2,2,0,2,41826,50000,3004,48010,0,0,0,0,0.00,0.00,0.00,0.00
2017-11-04 11:50:00,2,33583,22,0.00,2,2,0,2,17781,49419,10876,32894,0,78,34,0,0.00,0.00,0.00,0.00
2017-11-04 12:00:00,2,47212,78,0.00,2,2,0,2,35704,50000,4401,48882,77,78,0,78,0.00,0.00,0.00,0.00
2017-11-04 12:10:00,2,22556,78,0.01,2,2,0,2,9648,41641,10269,21280,77,78,0,78,0.00,0.05,0.02,0.00
2017-11-04 12:20:00,2,30003,53,0.00,2,2,0,2,15980,47661,9258,26958,0,77,35,77,0.00,0.00,0.00,0.00
2017-11-04 12:30:00,2,33387,77,0.00,2,2,0,2,21953,49037,7861,32700,71,78,2,78,0.00,0.00,0.00,0.00
2017-11-04 12:40:00,2,36488,16,0.00,2,2,0,2,25547,46638,6324,36944,0,78,31,0,0.00,0.00,0.00,0.00
2017-11-04 12:50:00,2,33393,0,0.00,2,2,0,2,25209,44227,5480,32884,0,0,0,0,0.00,0.00,0.00,0.00
2017-11-04 13:00:00,2,41569,38,0.00,2,2,0,2,28739,50000,7179,43228,0,78,38,36,0.00,0.00,0.00,0.00
2017-11-04 13:10:00,2,44985,0,0.00,2,2,0,2,33267,50000,6664,49902,0,0,0,0,0.00,0.00,0.00,0.00
2017-11-04 13:20:00,2,48888,0,0.00,2,2,0,2,41702,50000,2539,50000,0,0,0,0,0.00,0.00,0.00,0.00
2017-11-04 13:30:00,2,50000,0,0.00,2,2,0,2,50000,50000,0,50000,0,0,0,0,0.00,0.00,0.00,0.00
2017-11-04 13:40:00,2,50000,0,0.00,2,2,0,2,50000,50000,0,50000,0,0,0,0,0.00,0.00,0.00,0.00
2017-11-04 13:50:00,2,49121,0,0.00,2,2,0,2,46233,50000,1332,50000,0,0,0,0,0.00,0.00,0.00,0.00
2017-11-04 14:00:00,2,49615,0,0.00,2,2,0,2,47340,50000,838,50000,0,0,0,0,0.00,0.00,0.00,0.00
2017-11-04 14:10:00,2,49131,0,0.00,2,2,0,2,46413,50000,1217,50000,0,0,0,0,0.00,0.00,0.00,0.00
2017-11-04 14:20:00,2,49519,0,0.00,2,2,0,2,46738,50000,1036,50000,0,0,0,0,0.00,0.00,0.00,0.00
2017-11-04 14:30:00,2,50000,0,0.00,2,2,0,2,50000,50000,0,50000,0,0,0,0,0.00,0.00,0.00,0.00
2017-11-04 14:40:00,2,47519,0,0.00,2,2,0,2,39280,50000,3720,50000,0,0,0,0,0.00,0.00,0.00,0.00
2017-11-04 14:50:00,2,48478,0,0.00,2,2,0,2,43652,50000,2435,50000,0,0,0,0,0.00,0.00,0.00,0.00
2017-11-04 15:00:00,2,48244,0,0.00,2,2,0,2,42428,50000,2342,49346,0,0,0,0,0.00,0.00,0.00,0.00
2017-11-04 15:10:00,2,46574,0,0.00,2,2,0,2,42568,50000,2407,47139,0,0,0,0,0.00,0.00,0.00,0.00
2017-11-04 15:20:00,2,38802,30,0.00,2,2,0,2,24604,49203,7342,38390,0,78,37,0,0.00,0.00,0.00,0.00
2017-11-04 15:30:00,2,34366,53,0.01,2,2,0,2,13438,46515,9933,36136,0,78,35,74,0.00,0.05,0.02,0.00
2017-11-04 15:40:00,2,17069,76,0.02,2,2,0,2,9247,28073,7459,14299,71,78,3,78,0.00,0.05,0.02,0.00
2017-11-04 15:50:00,2,10044,72,0.11,2,2,0,2,4687,16545,3170,9972,71,78,3,71,0.00,0.55,0.16,0.05
2017-11-04 16:00:00,2,8047,73,0.18,2,2,0,2,3597,16587,3524,6680,71,77,3,71,0.00,0.60,0.19,0.12
2017-11-04 16:10:00,2,9437,71,0.12,2,2,0,2,4209,14311,3126,9626,71,71,0,71,0.05,0.35,0.10,0.08
2017-11-04 16:20:00,2,13465,71,0.15,2,2,0,2,3957,22607,6482,14986,71,71,0,71,0.00,0.70,0.23,0.03
2017-11-04 16:30:00,2,16327,71,0.06,2,2,0,2,7522,27690,5506,15769,71,71,0,71,0.00,0.20,0.07,0.05
2017-11-04 16:40:00,2,20064,71,0.07,2,2,0,2,12800,29744,6749,18828,71,71,0,71,0.00,0.25,0.09,0.00
2017-11-04 16:50:00,2,18726,71,0.05,2,2,0,2,12272,25740,4701,16717,71,71,0,71,0.00,0.25,0.08,0.00
2017-11-04 17:00:00,2,20024,71,0.04,2,2,0,2,12199,29402,5514,18210,71,71,0,71,0.00,0.10,0.04,0.05
2017-11-04 17:10:00,2,25066,76,0.00,2,2,0,2,18373,31436,4058,25744,71,78,3,78,0.00,0.00,0.00,0.00
2017-11-04 17:20:00,2,27083,78,0.00,2,2,0,2,20525,34208,3472,26654,78,78,0,78,0.00,0.00,0.00,0.00
2017-11-04 17:30:00,2,34654,78,0.00,2,2,0,2,24472,49335,7734,32288,77,78,0,78,0.00,0.00,0.00,0.00
2017-11-04 17:40:00,2,41483,77,0.01,2,2,0,2,28818,50000,7045,41530,77,78,0,77,0.00,0.05,0.02,0.00
2017-11-04 17:50:00,2,48057,8,0.00,2,2,0,2,43089,50000,2413,49263,0,78,23,0,0.00,0.00,0.00,0.00
2017-11-04 18:00:00,2,48701,0,0.00,2,2,0,2,45341,50000,1600,49264,0,0,0,0,0.00,0.00,0.00,0.00
2017-11-04 18:10:00,2,49801,0,0.00,2,2,0,2,48837,50000,371,50000,0,0,0,0,0.00,0.00,0.00,0.00
2017-11-04 18:20:00,2,50000,0,0.00,2,2,0,2,50000,50000,0,50000,0,0,0,0,0.00,0.00,0.00,0.00
2017-11-04 18:30:00,2,50000,0,0.00,2,2,0,2,50000,50000,0,50000,0,0,0,0,0.00,0.00,0.00,0.00
2017-11-04 18:40:00,2,50000,0,0.00,2,2,0,2,50000,50000,0,50000,0,0,0,0,0.00,0.00,0.00,0.00
2017-11-04 18:50:00,2,50000,0,0.00,2,2,0,2,50000,50000,0,50000,0,0,0,0,0.00,0.00,0.00,0.00
2017-11-04 19:00:00,2,50000,0,0.00,2,2,0,2,50000,50000,0,50000,0,0,0,0,0.00,0.00,0.00,0.00
2017-11-04 19:10:00,2,50000,0,0.00,2,2,0,2,50000,50000,0,50000,0,0,0,0,0.00,0.00,0.00,0.00
2017-11-04 19:20:00,2,50000,0,0.00,2,2,0,2,50000,50000,0,50000,0,0,0,0,0.00,0.00,0.00,0.00
2017-11-04 19:30:00,2,50000,0,0.00,2,2,0,2,50000,50000,0,50000,0,0,0,0,0.00,0.00,0.00,0.00
2017-11-04 19:40:00,2,49712,0,0.00,2,2,0,2,47120,50000,864,50000,0,0,0,0,0.00,0.00,0.00,0.00
2017-11-04 19:50:00,2,46579,0,0.00,2,2,0,2,37833,50000,4179,48492,0,0,0,0,0.00,0.00,0.00,0.00
2017-11-04 20:00:00,2,48839,0,0.00,2,2,0,2,42980,50000,2038,49568,0,0,0,0,0.00,0.00,0.00,0.00
2017-11-04 20:10:00,2,45716,0,0.00,2,2,0,2,38333,50000,4143,46119,0,0,0,0,0.00,0.00,0.00,0.00
2017-11-04 20:20:00,2,45286,0,0.00,2,2,0,2,37986,50000,4514,45506,0,0,0,0,0.00,0.00,0.00,0.00
2017-11-04 20:30:00,2,48609,0,0.00,2,2,0,2,45166,50000,1854,50000,0,0,0,0,0.00,0.00,0.00,0.00
2017-11-04 20:40:00,2,44135,0,0.00,2,2,0,2,37535,50000,4740,43210,0,0,0,0,0.00,0.00,0.00,0.00
2017-11-04 20:50:00,2,49060,0,0.00,2,2,0,2,46916,50000,1283,49884,0,0,0,0,0.00,0.00,0.00,0.00
2017-11-04 21:00:00,2,49664,0,0.00,2,2,0,2,48429,50000,572,50000,0,0,0,0,0.00,0.00,0.00,0.00
2017-11-04 21:10:00,2,46152,0,0.00,2,2,0,2,29043,50000,7734,50000,0,0,0,0,0.00,0.00,0.00,0.00
2017-11-04 21:20:00,2,48155,0,0.00,2,2,0,2,40481,50000,2979,49888,0,0,0,0,0.00,0.00,0.00,0.00
2017-11-04 21:30:00,2,48724,0,0.00,2,2,0,2,43521,50000,1954,49552,0,0,0,0,0.00,0.00,0.00,0.00
2017-11-04 21:40:00,2,43294,0,0.00,2,2,0,2,35583,50000,4991,43083,0,0,0,0,0.00,0.00,0.00,0.00
2017-11-04 21:50:00,2,31150,0,0.00,2,2,0,2,23478,48083,7405,28284,0,0,0,0,0.00,0.00,0.00,0.00
2017-11-04 22:00:00,2,21345,38,0.00,2,2,0,2,15460,27689,3679,20274,0,78,38,36,0.00,0.00,0.00,0.00
2017-11-04 22:10:00,2,19952,78,0.00,2,2,0,2,14384,22319,2160,20458,78,78,0,78,0.00,0.00,0.00,0.00
2017-11-04 22:20:00,2,16354,78,0.00,2,2,0,2,13718,19358,1646,16817,78,78,0,78,0.00,0.00,0.00,0.00
2017-11-04 22:30:00,2,17543,78,0.00,2,2,0,2,15354,19537,1339,18054,78,78,0,78,0.00,0.00,0.00,0.00
2017-11-04 22:40:00,2,16989,78,0.00,2,2,0,2,11487,21800,3567,15870,78,78,0,78,0.00,0.00,0.00,0.00
2017-11-04 22:50:00,2,16588,78,0.00,2,2,0,2,12564,19028,2029,17350,78,78,0,78,0.00,0.00,0.00,0.00
2017-11-04 23:00:00,2,13348,78,0.00,2,2,0,2,10193,14698,1282,13678,78,78,0,78,0.00,0.00,0.00,0.00
2017-11-04 23:10:00,2,12058,78,0.00,2,2,0,2,9914,15556,1995,11417,77,78,0,78,0.00,0.00,0.00,0.00
2017-11-04 23:20:00,2,10390,78,0.01,2,2,0,2,8362,12085,1089,10344,77,78,0,78,0.00,0.05,0.02,0.00
2017-11-04 23:30:00,2,9071,77,0.01,2,2,0,2,7644,10267,741,8916,77,77,0,77,0.00,0.05,0.02,0.00
2017-11-04 23:40:00,2,10394,76,0.02,2,2,0,2,8802,12343,992,10357,71,77,2,77,0.00,0.15,0.05,0.00
2017-11-04 23:50:00,2,11382,77,0.03,2,2,0,2,7795,13648,1736,12168,77,77,0,77,0.00,0.05,0.03,0.03
